Time,TemperatureF,DewpointF,PressureIn,WindDirection,WindDirectionDegrees,WindSpeedMPH,WindSpeedGustMPH,Humidity,HourlyPrecipIn,Conditions,Clouds,dailyrainin,SoftwareType,DateUTC
2013-07-24 00:02:00,79.9,71.2,29.84,South,169,1.0,2.0,75,0.00,,,0.00,meteohub,2013-07-24 05:02:00,
2013-07-24 00:07:00,79.9,70.9,29.84,SSE,156,0.0,2.0,74,0.00,,,0.00,meteohub,2013-07-24 05:07:00,
2013-07-24 00:12:00,79.7,70.7,29.84,South,186,0.0,2.0,74,0.00,,,0.00,meteohub,2013-07-24 05:12:00,
2013-07-24 00:17:00,79.5,70.5,29.84,South,177,0.0,2.0,74,0.00,,,0.00,meteohub,2013-07-24 05:17:00,
2013-07-24 00:22:00,79.5,70.5,29.83,South,175,0.0,2.0,74,0.00,,,0.00,meteohub,2013-07-24 05:22:00,
2013-07-24 00:27:00,79.5,70.5,29.83,SSE,156,0.0,3.0,74,0.00,,,0.00,meteohub,2013-07-24 05:27:00,
2013-07-24 00:32:00,79.5,70.5,29.83,SSW,206,1.0,3.0,74,0.00,,,0.00,meteohub,2013-07-24 05:32:00,
2013-07-24 00:37:00,79.7,71.1,29.83,SSE,161,0.0,4.0,75,0.00,,,0.00,meteohub,2013-07-24 05:37:00,
2013-07-24 00:42:00,79.9,70.9,29.83,SSE,162,0.0,4.0,74,0.00,,,0.00,meteohub,2013-07-24 05:42:00,
2013-07-24 00:47:00,80.1,71.1,29.83,South,191,1.0,4.0,74,0.00,,,0.00,meteohub,2013-07-24 05:47:00,
2013-07-24 00:52:00,80.1,71.1,29.84,SW,215,0.0,3.0,74,0.00,,,0.00,meteohub,2013-07-24 05:52:00,
2013-07-24 00:57:00,80.2,71.2,29.84,South,170,1.0,3.0,74,0.00,,,0.00,meteohub,2013-07-24 05:57:00,
2013-07-24 01:02:00,80.2,71.6,29.84,South,178,1.0,4.0,75,0.00,,,0.00,meteohub,2013-07-24 06:02:00,
2013-07-24 01:07:00,80.2,71.6,29.84,South,184,2.0,4.0,75,0.00,,,0.00,meteohub,2013-07-24 06:07:00,
2013-07-24 01:12:00,80.2,71.6,29.84,SW,236,0.0,2.0,75,0.00,,,0.00,meteohub,2013-07-24 06:12:00,
2013-07-24 01:17:00,80.1,71.4,29.84,SW,236,0.0,3.0,75,0.00,,,0.00,meteohub,2013-07-24 06:17:00,
2013-07-24 01:22:00,80.1,71.4,29.84,South,184,1.0,3.0,75,0.00,,,0.00,meteohub,2013-07-24 06:22:00,
2013-07-24 01:27:00,80.1,71.4,29.84,SSE,161,0.0,3.0,75,0.00,,,0.00,meteohub,2013-07-24 06:27:00,
2013-07-24 01:32:00,79.9,71.2,29.84,South,189,1.0,3.0,75,0.00,,,0.00,meteohub,2013-07-24 06:32:00,
2013-07-24 01:37:00,79.9,71.2,29.84,SSE,167,1.0,3.0,75,0.00,,,0.00,meteohub,2013-07-24 06:37:00,
2013-07-24 01:42:00,79.9,71.2,29.84,ESE,109,0.0,3.0,75,0.00,,,0.00,meteohub,2013-07-24 06:42:00,
2013-07-24 01:47:00,79.7,71.1,29.84,SSE,161,0.0,3.0,75,0.00,,,0.00,meteohub,2013-07-24 06:47:00,
2013-07-24 01:52:00,79.5,70.9,29.84,SE,136,0.0,3.0,75,0.00,,,0.00,meteohub,2013-07-24 06:52:00,
2013-07-24 01:57:00,79.5,70.9,29.84,South,172,2.0,3.0,75,0.00,,,0.00,meteohub,2013-07-24 06:57:00,
2013-07-24 02:02:00,79.3,71.1,29.84,South,171,0.0,3.0,76,0.00,,,0.00,meteohub,2013-07-24 07:02:00,
2013-07-24 02:07:00,79.3,71.1,29.84,South,176,0.0,2.0,76,0.00,,,0.00,meteohub,2013-07-24 07:07:00,
2013-07-24 02:12:00,79.2,70.9,29.84,SSW,200,0.0,3.0,76,0.00,,,0.00,meteohub,2013-07-24 07:12:00,
2013-07-24 02:18:00,79.2,70.9,29.84,SSW,198,0.0,3.0,76,0.00,,,0.00,meteohub,2013-07-24 07:18:00,
2013-07-24 02:23:00,79.0,71.1,29.85,South,187,0.0,3.0,77,0.00,,,0.00,meteohub,2013-07-24 07:23:00,
2013-07-24 02:28:00,78.6,70.9,29.85,SSE,156,0.0,3.0,77,0.00,,,0.00,meteohub,2013-07-24 07:28:00,
2013-07-24 02:33:00,78.4,70.7,29.85,SSW,198,1.0,2.0,77,0.00,,,0.00,meteohub,2013-07-24 07:33:00,
2013-07-24 02:38:00,78.4,71.1,29.85,SSE,151,0.0,2.0,78,0.00,,,0.00,meteohub,2013-07-24 07:38:00,
2013-07-24 02:43:00,78.3,70.9,29.85,South,186,1.0,4.0,78,0.00,,,0.00,meteohub,2013-07-24 07:43:00,
2013-07-24 02:48:00,78.1,70.7,29.86,East,96,0.0,4.0,78,0.00,,,0.00,meteohub,2013-07-24 07:48:00,
2013-07-24 02:53:00,78.1,70.7,29.85,South,184,0.0,4.0,78,0.00,,,0.00,meteohub,2013-07-24 07:53:00,
2013-07-24 02:58:00,78.1,70.7,29.85,SE,144,1.0,3.0,78,0.00,,,0.00,meteohub,2013-07-24 07:58:00,
2013-07-24 03:03:00,77.9,70.5,29.85,South,179,0.0,3.0,78,0.00,,,0.00,meteohub,2013-07-24 08:03:00,
2013-07-24 03:08:00,77.7,70.7,29.86,South,179,1.0,4.0,79,0.00,,,0.00,meteohub,2013-07-24 08:08:00,
2013-07-24 03:13:00,77.7,70.7,29.86,South,178,0.0,4.0,79,0.00,,,0.00,meteohub,2013-07-24 08:13:00,
2013-07-24 03:18:00,77.7,70.7,29.85,SSE,153,1.0,4.0,79,0.00,,,0.00,meteohub,2013-07-24 08:18:00,
2013-07-24 03:23:00,77.5,70.5,29.85,SE,137,2.0,3.0,79,0.00,,,0.00,meteohub,2013-07-24 08:23:00,
2013-07-24 03:28:00,77.5,70.9,29.85,South,182,2.0,3.0,80,0.00,,,0.00,meteohub,2013-07-24 08:28:00,
2013-07-24 03:33:00,77.4,70.7,29.85,SSW,205,0.0,5.0,80,0.00,,,0.00,meteohub,2013-07-24 08:33:00,
2013-07-24 03:38:00,77.4,70.7,29.84,South,189,0.0,5.0,80,0.00,,,0.00,meteohub,2013-07-24 08:38:00,
2013-07-24 03:43:00,77.4,70.7,29.84,South,181,1.0,4.0,80,0.00,,,0.00,meteohub,2013-07-24 08:43:00,
2013-07-24 03:48:00,77.4,70.7,29.84,SW,236,1.0,4.0,80,0.00,,,0.00,meteohub,2013-07-24 08:48:00,
2013-07-24 03:53:00,77.4,71.1,29.84,SSW,195,3.0,5.0,81,0.00,,,0.00,meteohub,2013-07-24 08:53:00,
2013-07-24 03:58:00,77.4,71.1,29.85,ESE,108,3.0,5.0,81,0.00,,,0.00,meteohub,2013-07-24 08:58:00,
2013-07-24 04:03:00,77.4,71.1,29.85,SSE,155,1.0,5.0,81,0.00,,,0.00,meteohub,2013-07-24 09:03:00,
2013-07-24 04:08:00,77.4,71.1,29.85,WSW,239,2.0,5.0,81,0.00,,,0.00,meteohub,2013-07-24 09:08:00,
2013-07-24 04:13:00,77.4,71.1,29.85,South,184,3.0,4.0,81,0.00,,,0.00,meteohub,2013-07-24 09:13:00,
2013-07-24 04:18:00,77.4,71.4,29.85,South,171,0.0,3.0,82,0.00,,,0.00,meteohub,2013-07-24 09:18:00,
2013-07-24 04:23:00,77.4,71.4,29.86,WSW,243,0.0,3.0,82,0.00,,,0.00,meteohub,2013-07-24 09:23:00,
2013-07-24 04:28:00,77.4,71.4,29.86,SSE,162,0.0,5.0,82,0.00,,,0.00,meteohub,2013-07-24 09:28:00,
2013-07-24 04:33:00,77.4,71.4,29.86,SSE,151,1.0,5.0,82,0.00,,,0.00,meteohub,2013-07-24 09:33:00,
2013-07-24 04:38:00,77.2,71.6,29.87,South,186,0.0,3.0,83,0.00,,,0.00,meteohub,2013-07-24 09:38:00,
2013-07-24 04:43:00,77.2,71.6,29.87,South,186,0.0,3.0,83,0.00,,,0.00,meteohub,2013-07-24 09:43:00,
2013-07-24 04:48:00,77.2,71.6,29.88,SSE,157,1.0,3.0,83,0.00,,,0.00,meteohub,2013-07-24 09:48:00,
2013-07-24 04:53:00,77.2,71.6,29.88,SSE,165,0.0,3.0,83,0.00,,,0.00,meteohub,2013-07-24 09:53:00,
2013-07-24 04:58:00,77.2,72.0,29.87,SE,124,1.0,2.0,84,0.00,,,0.00,meteohub,2013-07-24 09:58:00,
2013-07-24 05:03:00,77.2,72.0,29.88,SE,124,0.0,2.0,84,0.00,,,0.00,meteohub,2013-07-24 10:03:00,
2013-07-24 05:08:00,77.2,72.0,29.88,SSW,206,1.0,3.0,84,0.00,,,0.00,meteohub,2013-07-24 10:08:00,
2013-07-24 05:13:00,77.0,71.8,29.88,SSW,196,1.0,3.0,84,0.00,,,0.00,meteohub,2013-07-24 10:13:00,
2013-07-24 05:18:00,77.0,71.8,29.88,SE,144,1.0,3.0,84,0.00,,,0.00,meteohub,2013-07-24 10:18:00,
2013-07-24 05:23:00,77.0,71.8,29.88,SW,227,1.0,3.0,84,0.00,,,0.00,meteohub,2013-07-24 10:23:00,
2013-07-24 05:28:00,77.0,71.8,29.89,South,180,1.0,3.0,84,0.00,,,0.00,meteohub,2013-07-24 10:28:00,
2013-07-24 05:34:00,77.0,72.1,29.89,SE,140,0.0,3.0,85,0.00,,,0.00,meteohub,2013-07-24 10:34:00,
2013-07-24 05:39:00,77.0,72.1,29.91,SSW,195,0.0,3.0,85,0.00,,,0.00,meteohub,2013-07-24 10:39:00,
2013-07-24 05:44:00,77.2,72.3,29.93,NNW,330,1.0,3.0,85,0.00,,,0.00,meteohub,2013-07-24 10:44:00,
2013-07-24 05:49:00,77.2,72.0,29.94,NE,42,1.0,4.0,84,0.00,,,0.00,meteohub,2013-07-24 10:49:00,
2013-07-24 05:54:00,77.2,72.3,29.94,NE,40,3.0,8.0,85,0.00,,,0.00,meteohub,2013-07-24 10:54:00,
2013-07-24 05:59:00,77.2,72.0,29.95,NNE,32,0.0,8.0,84,0.00,,,0.00,meteohub,2013-07-24 10:59:00,
2013-07-24 06:04:00,77.2,72.0,29.95,NE,53,1.0,7.0,84,0.00,,,0.00,meteohub,2013-07-24 11:04:00,
2013-07-24 06:09:00,77.4,72.1,29.95,NE,51,0.0,5.0,84,0.00,,,0.00,meteohub,2013-07-24 11:09:00,
2013-07-24 06:14:00,77.4,72.1,29.95,NW,315,1.0,2.0,84,0.00,,,0.00,meteohub,2013-07-24 11:14:00,
2013-07-24 06:19:00,77.4,72.1,29.95,NE,49,0.0,2.0,84,0.00,,,0.00,meteohub,2013-07-24 11:19:00,
2013-07-24 06:24:00,77.4,72.1,29.95,NE,49,0.0,3.0,84,0.00,,,0.00,meteohub,2013-07-24 11:24:00,
2013-07-24 06:29:00,77.4,72.5,29.95,NE,49,0.0,3.0,85,0.00,,,0.00,meteohub,2013-07-24 11:29:00,
2013-07-24 06:34:00,77.4,72.5,29.95,NE,49,0.0,3.0,85,0.00,,,0.00,meteohub,2013-07-24 11:34:00,
2013-07-24 06:39:00,77.4,72.5,29.96,NE,37,0.0,3.0,85,0.00,,,0.00,meteohub,2013-07-24 11:39:00,
2013-07-24 06:44:00,77.5,72.7,29.96,NW,311,2.0,3.0,85,0.00,,,0.00,meteohub,2013-07-24 11:44:00,
2013-07-24 06:49:00,77.4,72.1,29.96,North,5,1.0,7.0,84,0.00,,,0.00,meteohub,2013-07-24 11:49:00,
2013-07-24 06:54:00,76.6,71.8,29.96,NE,38,5.0,12.0,85,0.00,,,0.00,meteohub,2013-07-24 11:54:00,
2013-07-24 06:59:00,75.7,72.0,29.97,NE,36,5.0,12.0,88,0.00,,,0.00,meteohub,2013-07-24 11:59:00,
2013-07-24 07:04:00,74.8,71.8,29.96,NNE,20,2.0,12.0,90,0.04,,,0.04,meteohub,2013-07-24 12:04:00,
2013-07-24 07:09:00,74.5,71.6,29.96,NE,36,2.0,8.0,91,0.08,,,0.08,meteohub,2013-07-24 12:09:00,
2013-07-24 07:14:00,73.9,71.4,29.96,NE,55,2.0,6.0,92,0.08,,,0.08,meteohub,2013-07-24 12:14:00,
2013-07-24 07:19:00,73.8,71.6,29.95,East,86,0.0,6.0,93,0.08,,,0.08,meteohub,2013-07-24 12:19:00,
2013-07-24 07:24:00,73.6,71.8,29.95,ENE,59,3.0,5.0,94,0.08,,,0.08,meteohub,2013-07-24 12:24:00,
2013-07-24 07:29:00,73.4,71.6,29.95,NE,49,1.0,5.0,94,0.08,,,0.08,meteohub,2013-07-24 12:29:00,
2013-07-24 07:34:00,73.2,71.4,29.95,NNE,19,0.0,5.0,94,0.08,,,0.08,meteohub,2013-07-24 12:34:00,
2013-07-24 07:39:00,73.2,71.4,29.95,East,89,1.0,5.0,94,0.08,,,0.08,meteohub,2013-07-24 12:39:00,
2013-07-24 07:44:00,73.2,71.8,29.95,East,89,0.0,5.0,95,0.08,,,0.08,meteohub,2013-07-24 12:44:00,
2013-07-24 07:49:00,73.0,71.6,29.95,NE,44,0.0,3.0,95,0.09,,,0.09,meteohub,2013-07-24 12:49:00,
2013-07-24 07:54:00,73.0,71.8,29.95,NE,44,0.0,3.0,96,0.09,,,0.09,meteohub,2013-07-24 12:54:00,
2013-07-24 07:59:00,73.2,72.0,29.95,ENE,63,0.0,3.0,96,0.08,,,0.09,meteohub,2013-07-24 12:59:00,
2013-07-24 08:04:00,73.2,72.0,29.96,ENE,63,0.0,3.0,96,0.04,,,0.09,meteohub,2013-07-24 13:04:00,
2013-07-24 08:09:00,73.2,72.0,29.96,ENE,64,0.0,2.0,96,0.01,,,0.09,meteohub,2013-07-24 13:09:00,
2013-07-24 08:14:00,73.4,72.1,29.96,East,84,1.0,2.0,96,0.01,,,0.09,meteohub,2013-07-24 13:14:00,
2013-07-24 08:19:00,73.4,72.1,29.96,SE,138,2.0,2.0,96,0.01,,,0.09,meteohub,2013-07-24 13:19:00,
2013-07-24 08:24:00,73.4,72.1,29.96,SE,135,3.0,4.0,96,0.01,,,0.09,meteohub,2013-07-24 13:24:00,
2013-07-24 08:29:00,73.6,72.3,29.96,ESE,116,0.0,5.0,96,0.01,,,0.09,meteohub,2013-07-24 13:29:00,
2013-07-24 08:34:00,73.6,72.3,29.96,ESE,104,0.0,5.0,96,0.01,,,0.09,meteohub,2013-07-24 13:34:00,
2013-07-24 08:39:00,73.9,73.0,29.96,SSE,149,1.0,7.0,97,0.01,,,0.09,meteohub,2013-07-24 13:39:00,
2013-07-24 08:44:00,74.5,73.2,29.96,ESE,121,1.0,7.0,96,0.00,,,0.09,meteohub,2013-07-24 13:44:00,
2013-07-24 08:49:00,74.7,73.4,29.95,SSE,163,0.0,7.0,96,0.00,,,0.09,meteohub,2013-07-24 13:49:00,
2013-07-24 08:54:00,75.0,73.4,29.95,SSE,148,2.0,5.0,95,0.00,,,0.09,meteohub,2013-07-24 13:54:00,
2013-07-24 08:56:00,75.4,73.6,29.95,SSE,159,5.0,5.0,94,0.00,,,0.09,meteohub,2013-07-24 13:56:00,
2013-07-24 09:02:00,75.9,74.3,29.95,South,169,4.0,5.0,95,0.00,,,0.09,meteohub,2013-07-24 14:02:00,
2013-07-24 09:07:00,76.5,74.8,29.95,South,190,4.0,6.0,95,0.00,,,0.09,meteohub,2013-07-24 14:07:00,
2013-07-24 09:12:00,76.8,73.9,29.95,SSW,208,1.0,6.0,91,0.00,,,0.09,meteohub,2013-07-24 14:12:00,
2013-07-24 09:17:00,77.2,75.0,29.94,SSE,166,2.0,6.0,93,0.00,,,0.09,meteohub,2013-07-24 14:17:00,
2013-07-24 09:22:00,77.4,74.5,29.94,South,188,1.0,4.0,91,0.00,,,0.09,meteohub,2013-07-24 14:22:00,
2013-07-24 09:27:00,77.5,75.0,29.94,SE,139,0.0,4.0,92,0.00,,,0.09,meteohub,2013-07-24 14:27:00,
2013-07-24 09:32:00,78.3,75.7,29.94,South,173,0.0,5.0,92,0.00,,,0.09,meteohub,2013-07-24 14:32:00,
2013-07-24 09:37:00,78.6,75.4,29.94,SSE,161,0.0,5.0,90,0.00,,,0.09,meteohub,2013-07-24 14:37:00,
2013-07-24 09:42:00,78.8,75.2,29.94,SW,225,2.0,5.0,89,0.00,,,0.09,meteohub,2013-07-24 14:42:00,
2013-07-24 09:47:00,79.0,75.4,29.93,South,184,0.0,5.0,89,0.00,,,0.09,meteohub,2013-07-24 14:47:00,
2013-07-24 09:52:00,79.2,75.4,29.93,South,176,1.0,5.0,88,0.00,,,0.09,meteohub,2013-07-24 14:52:00,
2013-07-24 09:58:00,79.2,75.6,29.93,SE,143,1.0,5.0,89,0.00,,,0.09,meteohub,2013-07-24 14:58:00,
2013-07-24 10:03:00,79.2,75.4,29.93,SSE,164,1.0,4.0,88,0.00,,,0.09,meteohub,2013-07-24 15:03:00,
2013-07-24 10:08:00,79.2,75.6,29.93,SSE,148,0.0,6.0,89,0.00,,,0.09,meteohub,2013-07-24 15:08:00,
2013-07-24 10:13:00,79.2,75.4,29.93,SW,228,0.0,6.0,88,0.00,,,0.09,meteohub,2013-07-24 15:13:00,
2013-07-24 10:18:00,79.3,75.7,29.94,SW,215,0.0,6.0,89,0.00,,,0.09,meteohub,2013-07-24 15:18:00,
2013-07-24 10:23:00,79.7,76.5,29.93,West,262,2.0,4.0,90,0.00,,,0.09,meteohub,2013-07-24 15:23:00,
2013-07-24 10:28:00,79.9,75.9,29.93,SSW,211,0.0,4.0,88,0.00,,,0.09,meteohub,2013-07-24 15:28:00,
2013-07-24 10:33:00,80.1,75.9,29.94,SSE,155,0.0,2.0,87,0.00,,,0.09,meteohub,2013-07-24 15:33:00,
2013-07-24 10:38:00,80.1,76.1,29.94,WSW,257,0.0,3.0,88,0.00,,,0.09,meteohub,2013-07-24 15:38:00,
2013-07-24 10:43:00,80.2,76.1,29.95,SSW,194,0.0,4.0,87,0.00,,,0.09,meteohub,2013-07-24 15:43:00,
2013-07-24 10:48:00,80.2,76.1,29.95,West,259,0.0,4.0,87,0.00,,,0.09,meteohub,2013-07-24 15:48:00,
2013-07-24 10:53:00,80.2,76.1,29.95,SW,234,0.0,3.0,87,0.00,,,0.09,meteohub,2013-07-24 15:53:00,
2013-07-24 10:58:00,80.4,76.1,29.96,West,273,0.0,6.0,87,0.00,,,0.09,meteohub,2013-07-24 15:58:00,
2013-07-24 11:03:00,80.6,76.6,29.96,WSW,248,4.0,6.0,88,0.00,,,0.09,meteohub,2013-07-24 16:03:00,
2013-07-24 11:08:00,80.8,75.9,29.96,NW,311,1.0,4.0,85,0.00,,,0.09,meteohub,2013-07-24 16:08:00,
2013-07-24 11:13:00,80.8,76.5,29.96,West,271,3.0,4.0,87,0.00,,,0.09,meteohub,2013-07-24 16:13:00,
2013-07-24 11:18:00,80.8,76.3,29.94,West,264,3.0,8.0,86,0.00,,,0.09,meteohub,2013-07-24 16:18:00,
2013-07-24 11:23:00,81.0,76.5,29.93,SW,230,1.0,8.0,86,0.00,,,0.09,meteohub,2013-07-24 16:23:00,
2013-07-24 11:28:00,81.3,76.5,29.93,WSW,252,2.0,8.0,85,0.00,,,0.09,meteohub,2013-07-24 16:28:00,
2013-07-24 11:33:00,81.7,76.6,29.91,West,267,1.0,7.0,85,0.00,,,0.09,meteohub,2013-07-24 16:33:00,
2013-07-24 11:38:00,81.9,77.2,29.91,SW,223,2.0,8.0,86,0.00,,,0.09,meteohub,2013-07-24 16:38:00,
2013-07-24 11:43:00,81.9,76.5,29.89,South,175,1.0,8.0,84,0.00,,,0.09,meteohub,2013-07-24 16:43:00,
2013-07-24 11:48:00,82.0,76.6,29.88,East,100,1.0,8.0,84,0.00,,,0.09,meteohub,2013-07-24 16:48:00,
2013-07-24 11:53:00,82.4,77.0,29.87,SW,225,1.0,7.0,84,0.00,,,0.09,meteohub,2013-07-24 16:53:00,
2013-07-24 11:58:00,82.8,77.4,29.87,ENE,76,2.0,7.0,84,0.00,,,0.09,meteohub,2013-07-24 16:58:00,
2013-07-24 12:03:00,83.1,77.0,29.87,ESE,119,3.0,7.0,82,0.00,,,0.09,meteohub,2013-07-24 17:03:00,
2013-07-24 12:08:00,83.1,76.6,29.87,South,177,1.0,9.0,81,0.00,,,0.09,meteohub,2013-07-24 17:08:00,
2013-07-24 12:13:00,83.1,77.0,29.86,SSW,198,4.0,9.0,82,0.00,,,0.09,meteohub,2013-07-24 17:13:00,
2013-07-24 12:18:00,83.1,77.0,29.86,West,269,1.0,9.0,82,0.00,,,0.09,meteohub,2013-07-24 17:18:00,
2013-07-24 12:23:00,83.1,77.4,29.86,SSW,200,1.0,9.0,83,0.00,,,0.09,meteohub,2013-07-24 17:23:00,
2013-07-24 12:28:00,83.1,77.4,29.86,SW,229,3.0,6.0,83,0.00,,,0.09,meteohub,2013-07-24 17:28:00,
2013-07-24 12:33:00,83.3,76.8,29.85,SSE,153,2.0,6.0,81,0.00,,,0.09,meteohub,2013-07-24 17:33:00,
2013-07-24 12:38:00,83.5,77.4,29.85,SSE,153,3.0,9.0,82,0.00,,,0.09,meteohub,2013-07-24 17:38:00,
2013-07-24 12:43:00,83.8,77.7,29.85,South,175,3.0,9.0,82,0.00,,,0.09,meteohub,2013-07-24 17:43:00,
2013-07-24 12:48:00,84.4,77.9,29.86,South,175,0.0,9.0,81,0.00,,,0.09,meteohub,2013-07-24 17:48:00,
2013-07-24 12:53:00,84.9,78.4,29.86,SSW,197,3.0,7.0,81,0.00,,,0.09,meteohub,2013-07-24 17:53:00,
2013-07-24 12:59:00,85.8,79.0,29.86,South,186,0.0,7.0,80,0.00,,,0.09,meteohub,2013-07-24 17:59:00,
2013-07-24 13:04:00,86.5,79.2,29.86,SW,227,1.0,5.0,79,0.00,,,0.09,meteohub,2013-07-24 18:04:00,
2013-07-24 13:09:00,86.7,78.3,29.86,SSE,163,4.0,5.0,76,0.00,,,0.09,meteohub,2013-07-24 18:09:00,
2013-07-24 13:14:00,86.7,78.6,29.86,SW,222,2.0,4.0,77,0.00,,,0.09,meteohub,2013-07-24 18:14:00,
2013-07-24 13:19:00,86.7,78.6,29.86,SW,224,0.0,5.0,77,0.00,,,0.09,meteohub,2013-07-24 18:19:00,
2013-07-24 13:24:00,86.7,77.9,29.86,West,279,0.0,5.0,75,0.00,,,0.09,meteohub,2013-07-24 18:24:00,
2013-07-24 13:29:00,86.7,77.4,29.86,SW,231,1.0,6.0,74,0.00,,,0.09,meteohub,2013-07-24 18:29:00,
2013-07-24 13:34:00,86.7,77.4,29.85,SW,229,2.0,6.0,74,0.00,,,0.09,meteohub,2013-07-24 18:34:00,
2013-07-24 13:39:00,86.5,77.7,29.85,SW,229,0.0,6.0,75,0.00,,,0.09,meteohub,2013-07-24 18:39:00,
2013-07-24 13:44:00,86.5,77.7,29.86,SSE,157,0.0,6.0,75,0.00,,,0.09,meteohub,2013-07-24 18:44:00,
2013-07-24 13:49:00,86.4,77.0,29.86,ENE,78,1.0,6.0,74,0.00,,,0.09,meteohub,2013-07-24 18:49:00,
2013-07-24 13:54:00,85.8,77.4,29.87,ENE,78,0.0,5.0,76,0.00,,,0.09,meteohub,2013-07-24 18:54:00,
2013-07-24 13:59:00,85.8,77.7,29.88,ENE,78,0.0,3.0,77,0.00,,,0.09,meteohub,2013-07-24 18:59:00,
2013-07-24 14:04:00,86.0,78.3,29.88,ENE,78,0.0,2.0,78,0.00,,,0.09,meteohub,2013-07-24 19:04:00,
2013-07-24 14:09:00,86.4,78.3,29.89,North,5,2.0,2.0,77,0.00,,,0.09,meteohub,2013-07-24 19:09:00,
2013-07-24 14:14:00,86.5,78.1,29.88,North,5,0.0,4.0,76,0.00,,,0.09,meteohub,2013-07-24 19:14:00,
2013-07-24 14:19:00,86.7,77.9,29.88,NNW,336,1.0,4.0,75,0.00,,,0.09,meteohub,2013-07-24 19:19:00,
2013-07-24 14:24:00,86.7,77.9,29.89,NNE,22,0.0,4.0,75,0.00,,,0.09,meteohub,2013-07-24 19:24:00,
2013-07-24 14:29:00,86.5,78.1,29.89,NE,53,0.0,5.0,76,0.00,,,0.09,meteohub,2013-07-24 19:29:00,
2013-07-24 14:34:00,86.4,79.0,29.89,ENE,61,2.0,5.0,79,0.00,,,0.09,meteohub,2013-07-24 19:34:00,
2013-07-24 14:39:00,86.4,78.3,29.89,ENE,67,2.0,5.0,77,0.00,,,0.09,meteohub,2013-07-24 19:39:00,
2013-07-24 14:44:00,86.2,78.1,29.88,NNE,14,4.0,5.0,77,0.00,,,0.09,meteohub,2013-07-24 19:44:00,
2013-07-24 14:49:00,86.2,77.7,29.89,NNE,26,2.0,5.0,76,0.00,,,0.09,meteohub,2013-07-24 19:49:00,
2013-07-24 14:54:00,86.0,77.9,29.88,East,97,0.0,6.0,77,0.00,,,0.09,meteohub,2013-07-24 19:54:00,
2013-07-24 14:59:00,86.4,78.3,29.88,NE,41,1.0,6.0,77,0.00,,,0.09,meteohub,2013-07-24 19:59:00,
2013-07-24 15:04:00,87.1,78.3,29.88,NNE,32,1.0,6.0,75,0.00,,,0.09,meteohub,2013-07-24 20:04:00,
2013-07-24 15:09:00,87.4,78.1,29.88,ENE,65,2.0,4.0,74,0.00,,,0.09,meteohub,2013-07-24 20:09:00,
2013-07-24 15:14:00,87.6,79.9,29.88,ENE,59,0.0,5.0,78,0.00,,,0.09,meteohub,2013-07-24 20:14:00,
2013-07-24 15:19:00,88.2,78.4,29.88,NNW,336,0.0,5.0,73,0.00,,,0.09,meteohub,2013-07-24 20:19:00,
2013-07-24 15:24:00,88.7,78.4,29.88,North,351,2.0,5.0,72,0.00,,,0.09,meteohub,2013-07-24 20:24:00,
2013-07-24 15:29:00,88.7,79.0,29.88,NNW,332,0.0,4.0,73,0.00,,,0.09,meteohub,2013-07-24 20:29:00,
2013-07-24 15:34:00,89.2,78.6,29.88,WNW,298,2.0,4.0,71,0.00,,,0.09,meteohub,2013-07-24 20:34:00,
2013-07-24 15:39:00,89.2,79.0,29.88,WNW,297,1.0,5.0,72,0.00,,,0.09,meteohub,2013-07-24 20:39:00,
2013-07-24 15:44:00,89.2,78.6,29.88,NNW,348,1.0,6.0,71,0.00,,,0.09,meteohub,2013-07-24 20:44:00,
2013-07-24 15:49:00,89.4,78.8,29.88,West,281,0.0,6.0,71,0.00,,,0.09,meteohub,2013-07-24 20:49:00,
2013-07-24 15:54:00,89.4,78.3,29.88,NNE,19,0.0,6.0,70,0.00,,,0.09,meteohub,2013-07-24 20:54:00,
2013-07-24 16:00:00,88.9,77.9,29.88,NE,46,1.0,5.0,70,0.00,,,0.09,meteohub,2013-07-24 21:00:00,
2013-07-24 16:05:00,88.5,78.8,29.88,NE,46,1.0,7.0,73,0.00,,,0.09,meteohub,2013-07-24 21:05:00,
2013-07-24 16:10:00,89.1,78.8,29.88,WNW,302,2.0,7.0,72,0.00,,,0.09,meteohub,2013-07-24 21:10:00,
2013-07-24 16:15:00,89.4,77.0,29.88,North,5,0.0,3.0,67,0.00,,,0.09,meteohub,2013-07-24 21:15:00,
2013-07-24 16:20:00,89.8,77.4,29.88,NW,320,1.0,6.0,67,0.00,,,0.09,meteohub,2013-07-24 21:20:00,
2013-07-24 16:25:00,90.1,77.2,29.88,WSW,242,1.0,6.0,66,0.00,,,0.09,meteohub,2013-07-24 21:25:00,
2013-07-24 16:30:00,90.3,77.9,29.88,West,276,4.0,6.0,67,0.00,,,0.09,meteohub,2013-07-24 21:30:00,
2013-07-24 16:35:00,90.5,78.1,29.88,WNW,301,2.0,6.0,67,0.00,,,0.09,meteohub,2013-07-24 21:35:00,
2013-07-24 16:40:00,90.7,78.6,29.88,NW,309,1.0,6.0,68,0.00,,,0.09,meteohub,2013-07-24 21:40:00,
2013-07-24 16:45:00,91.0,77.5,29.88,WNW,292,0.0,6.0,65,0.00,,,0.09,meteohub,2013-07-24 21:45:00,
2013-07-24 16:50:00,90.9,77.5,29.88,NW,325,1.0,4.0,65,0.00,,,0.09,meteohub,2013-07-24 21:50:00,
2013-07-24 16:55:00,90.1,75.9,29.88,WNW,286,2.0,5.0,63,0.00,,,0.09,meteohub,2013-07-24 21:55:00,
2013-07-24 17:00:00,89.4,75.6,29.88,North,5,3.0,5.0,64,0.00,,,0.09,meteohub,2013-07-24 22:00:00,
2013-07-24 17:05:00,88.9,75.2,29.88,NNE,19,1.0,4.0,64,0.00,,,0.09,meteohub,2013-07-24 22:05:00,
2013-07-24 17:10:00,88.5,75.2,29.88,NNE,32,1.0,4.0,65,0.00,,,0.09,meteohub,2013-07-24 22:10:00,
2013-07-24 17:15:00,88.3,75.6,29.88,WNW,296,1.0,4.0,66,0.00,,,0.09,meteohub,2013-07-24 22:15:00,
2013-07-24 17:20:00,88.2,76.6,29.88,North,5,1.0,5.0,69,0.00,,,0.09,meteohub,2013-07-24 22:20:00,
2013-07-24 17:25:00,88.2,75.7,29.88,NE,34,0.0,5.0,67,0.00,,,0.09,meteohub,2013-07-24 22:25:00,
2013-07-24 17:30:00,88.3,76.5,29.88,ENE,61,1.0,5.0,68,0.00,,,0.09,meteohub,2013-07-24 22:30:00,
2013-07-24 17:35:00,88.5,77.0,29.88,North,5,3.0,3.0,69,0.00,,,0.09,meteohub,2013-07-24 22:35:00,
2013-07-24 17:40:00,88.3,76.5,29.88,NNE,14,2.0,4.0,68,0.00,,,0.09,meteohub,2013-07-24 22:40:00,
2013-07-24 17:45:00,88.2,76.6,29.88,NE,51,4.0,4.0,69,0.00,,,0.09,meteohub,2013-07-24 22:45:00,
2013-07-24 17:50:00,88.0,76.1,29.88,NE,40,0.0,5.0,68,0.00,,,0.09,meteohub,2013-07-24 22:50:00,
2013-07-24 17:55:00,88.3,76.5,29.88,NNE,12,3.0,5.0,68,0.00,,,0.09,meteohub,2013-07-24 22:55:00,
2013-07-24 18:00:00,88.3,76.5,29.88,NNE,26,3.0,5.0,68,0.00,,,0.09,meteohub,2013-07-24 23:00:00,
2013-07-24 18:05:00,88.2,76.3,29.88,North,5,1.0,5.0,68,0.00,,,0.09,meteohub,2013-07-24 23:05:00,
2013-07-24 18:10:00,88.0,77.4,29.87,NE,38,2.0,5.0,71,0.00,,,0.09,meteohub,2013-07-24 23:10:00,
2013-07-24 18:15:00,87.6,77.0,29.87,NE,53,3.0,7.0,71,0.00,,,0.09,meteohub,2013-07-24 23:15:00,
2013-07-24 18:20:00,87.3,76.6,29.87,NNW,345,1.0,7.0,71,0.00,,,0.09,meteohub,2013-07-24 23:20:00,
2013-07-24 18:25:00,87.3,76.6,29.87,ENE,76,1.0,7.0,71,0.00,,,0.09,meteohub,2013-07-24 23:25:00,
2013-07-24 18:30:00,87.1,77.0,29.87,NE,38,1.0,7.0,72,0.00,,,0.09,meteohub,2013-07-24 23:30:00,
2013-07-24 18:35:00,87.1,77.0,29.87,NE,43,3.0,6.0,72,0.00,,,0.09,meteohub,2013-07-24 23:35:00,
2013-07-24 18:40:00,86.9,77.2,29.87,North,11,0.0,5.0,73,0.00,,,0.09,meteohub,2013-07-24 23:40:00,
2013-07-24 18:45:00,86.7,76.6,29.87,NE,52,2.0,5.0,72,0.00,,,0.09,meteohub,2013-07-24 23:45:00,
2013-07-24 18:50:00,86.5,76.5,29.87,NNE,32,2.0,3.0,72,0.00,,,0.09,meteohub,2013-07-24 23:50:00,
2013-07-24 18:55:00,86.4,76.3,29.87,NNE,33,3.0,4.0,72,0.00,,,0.09,meteohub,2013-07-24 23:55:00,
2013-07-24 18:57:00,86.4,76.3,29.87,NNE,25,2.0,4.0,72,0.00,,,0.09,meteohub,2013-07-24 23:57:00,
2013-07-24 19:02:00,86.2,76.5,29.87,North,5,1.0,4.0,73,0.00,,,0.09,meteohub,2013-07-25 00:02:00,
2013-07-24 19:07:00,86.0,75.9,29.88,NE,45,1.0,4.0,72,0.00,,,0.00,meteohub,2013-07-25 00:07:00,
2013-07-24 19:12:00,86.0,75.6,29.88,NE,35,3.0,4.0,71,0.00,,,0.00,meteohub,2013-07-25 00:12:00,
2013-07-24 19:17:00,86.0,76.3,29.88,NNE,30,0.0,4.0,73,0.00,,,0.00,meteohub,2013-07-25 00:17:00,
2013-07-24 19:22:00,85.8,76.6,29.88,NNE,19,1.0,5.0,74,0.00,,,0.00,meteohub,2013-07-25 00:22:00,
2013-07-24 19:27:00,85.5,75.7,29.89,NNE,32,3.0,5.0,73,0.00,,,0.00,meteohub,2013-07-25 00:27:00,
2013-07-24 19:32:00,85.1,75.4,29.89,ENE,61,2.0,6.0,73,0.00,,,0.00,meteohub,2013-07-25 00:32:00,
2013-07-24 19:37:00,84.7,75.9,29.89,NNE,19,2.0,6.0,75,0.00,,,0.00,meteohub,2013-07-25 00:37:00,
2013-07-24 19:42:00,84.4,75.2,29.89,North,9,2.0,6.0,74,0.00,,,0.00,meteohub,2013-07-25 00:42:00,
2013-07-24 19:47:00,84.0,75.2,29.89,NNE,30,2.0,4.0,75,0.00,,,0.00,meteohub,2013-07-25 00:47:00,
2013-07-24 19:52:00,83.8,75.0,29.89,NE,38,0.0,4.0,75,0.00,,,0.00,meteohub,2013-07-25 00:52:00,
2013-07-24 19:57:00,83.5,75.0,29.89,NE,35,0.0,4.0,76,0.00,,,0.00,meteohub,2013-07-25 00:57:00,
2013-07-24 20:02:00,83.3,75.0,29.89,NE,35,0.0,4.0,76,0.00,,,0.00,meteohub,2013-07-25 01:02:00,
2013-07-24 20:07:00,82.9,75.0,29.89,NE,35,0.0,3.0,77,0.00,,,0.00,meteohub,2013-07-25 01:07:00,
2013-07-24 20:12:00,82.8,75.2,29.89,NE,35,0.0,3.0,78,0.00,,,0.00,meteohub,2013-07-25 01:12:00,
2013-07-24 20:17:00,82.6,75.0,29.89,NE,35,0.0,3.0,78,0.00,,,0.00,meteohub,2013-07-25 01:17:00,
2013-07-24 20:22:00,82.2,75.0,29.89,NE,35,0.0,2.0,79,0.00,,,0.00,meteohub,2013-07-25 01:22:00,
2013-07-24 20:27:00,82.0,74.8,29.89,NE,35,0.0,1.0,79,0.00,,,0.00,meteohub,2013-07-25 01:27:00,
2013-07-24 20:32:00,81.9,74.7,29.89,NE,35,0.0,1.0,79,0.00,,,0.00,meteohub,2013-07-25 01:32:00,
2013-07-24 20:37:00,81.5,75.0,29.89,NE,35,1.0,1.0,81,0.00,,,0.00,meteohub,2013-07-25 01:37:00,
2013-07-24 20:43:00,81.1,74.3,29.90,NE,35,0.0,2.0,80,0.00,,,0.00,meteohub,2013-07-25 01:43:00,
2013-07-24 20:48:00,80.8,74.5,29.90,NE,35,0.0,2.0,81,0.00,,,0.00,meteohub,2013-07-25 01:48:00,
2013-07-24 20:53:00,80.4,74.1,29.90,NE,35,0.0,2.0,81,0.00,,,0.00,meteohub,2013-07-25 01:53:00,
2013-07-24 20:58:00,80.2,73.9,29.90,NE,35,1.0,2.0,81,0.00,,,0.00,meteohub,2013-07-25 01:58:00,
2013-07-24 21:03:00,80.2,73.9,29.90,NE,35,0.0,2.0,81,0.00,,,0.00,meteohub,2013-07-25 02:03:00,
2013-07-24 21:08:00,80.1,74.1,29.90,NE,35,0.0,2.0,82,0.00,,,0.00,meteohub,2013-07-25 02:08:00,
2013-07-24 21:13:00,80.1,74.1,29.90,NE,35,0.0,1.0,82,0.00,,,0.00,meteohub,2013-07-25 02:13:00,
2013-07-24 21:18:00,79.9,74.3,29.90,NE,35,0.0,1.0,83,0.00,,,0.00,meteohub,2013-07-25 02:18:00,
2013-07-24 21:23:00,79.5,73.9,29.90,NE,35,0.0,2.0,83,0.00,,,0.00,meteohub,2013-07-25 02:23:00,
2013-07-24 21:28:00,79.3,74.1,29.90,NE,35,0.0,2.0,84,0.00,,,0.00,meteohub,2013-07-25 02:28:00,
2013-07-24 21:33:00,79.2,73.9,29.91,NE,35,1.0,2.0,84,0.00,,,0.00,meteohub,2013-07-25 02:33:00,
2013-07-24 21:38:00,79.0,73.8,29.91,NNE,32,0.0,1.0,84,0.00,,,0.00,meteohub,2013-07-25 02:38:00,
2013-07-24 21:43:00,79.0,73.8,29.91,NNE,32,0.0,4.0,84,0.00,,,0.00,meteohub,2013-07-25 02:43:00,
2013-07-24 21:48:00,78.8,73.6,29.91,NNE,32,1.0,4.0,84,0.00,,,0.00,meteohub,2013-07-25 02:48:00,
2013-07-24 21:53:00,78.6,73.4,29.91,NNE,31,0.0,4.0,84,0.00,,,0.00,meteohub,2013-07-25 02:53:00,
2013-07-24 21:58:00,78.4,73.6,29.92,NNE,32,0.0,3.0,85,0.00,,,0.00,meteohub,2013-07-25 02:58:00,
2013-07-24 22:03:00,78.4,73.6,29.92,NNE,31,1.0,3.0,85,0.00,,,0.00,meteohub,2013-07-25 03:03:00,
2013-07-24 22:10:00,78.3,73.4,29.92,NNE,32,1.0,2.0,85,0.00,,,0.00,meteohub,2013-07-25 03:10:00,
2013-07-24 22:15:00,77.9,73.0,29.92,NE,40,0.0,2.0,85,0.00,,,0.00,meteohub,2013-07-25 03:15:00,
2013-07-24 22:22:00,77.7,72.9,29.92,NE,40,0.0,2.0,85,0.00,,,0.00,meteohub,2013-07-25 03:22:00,
2013-07-24 22:27:00,77.5,73.0,29.92,NE,40,0.0,2.0,86,0.00,,,0.00,meteohub,2013-07-25 03:27:00,
2013-07-24 22:32:00,77.4,72.9,29.92,NE,40,0.0,2.0,86,0.00,,,0.00,meteohub,2013-07-25 03:32:00,
2013-07-24 22:37:00,77.2,72.3,29.92,NE,40,0.0,2.0,85,0.00,,,0.00,meteohub,2013-07-25 03:37:00,
2013-07-24 22:42:00,77.2,72.7,29.92,NE,40,0.0,2.0,86,0.00,,,0.00,meteohub,2013-07-25 03:42:00,
2013-07-24 22:47:00,77.2,72.7,29.92,NE,40,1.0,1.0,86,0.00,,,0.00,meteohub,2013-07-25 03:47:00,
2013-07-24 22:52:00,77.0,72.5,29.92,NE,40,0.0,1.0,86,0.00,,,0.00,meteohub,2013-07-25 03:52:00,
2013-07-24 22:57:00,76.8,72.3,29.92,NE,41,0.0,1.0,86,0.00,,,0.00,meteohub,2013-07-25 03:57:00,
2013-07-24 23:01:00,76.6,72.1,29.92,NE,41,0.0,1.0,86,0.00,,,0.00,meteohub,2013-07-25 04:01:00,
2013-07-24 23:02:00,76.6,72.5,29.92,NE,40,1.0,1.0,87,0.00,,,0.00,meteohub,2013-07-25 04:02:00,
2013-07-24 23:07:00,76.5,72.3,29.93,NE,49,1.0,2.0,87,0.00,,,0.00,meteohub,2013-07-25 04:07:00,
2013-07-24 23:12:00,76.5,72.3,29.93,NE,49,1.0,2.0,87,0.00,,,0.00,meteohub,2013-07-25 04:12:00,
2013-07-24 23:17:00,76.3,72.1,29.93,NE,49,0.0,2.0,87,0.00,,,0.00,meteohub,2013-07-25 04:17:00,
2013-07-24 23:22:00,75.9,71.8,29.93,NE,49,0.0,2.0,87,0.00,,,0.00,meteohub,2013-07-25 04:22:00,
2013-07-24 23:27:00,75.7,72.0,29.93,NE,49,0.0,1.0,88,0.00,,,0.00,meteohub,2013-07-25 04:27:00,
2013-07-24 23:32:00,75.7,72.0,29.94,NE,49,0.0,2.0,88,0.00,,,0.00,meteohub,2013-07-25 04:32:00,
2013-07-24 23:37:00,75.6,71.8,29.94,NE,49,0.0,2.0,88,0.00,,,0.00,meteohub,2013-07-25 04:37:00,
2013-07-24 23:42:00,75.6,71.8,29.94,NE,49,0.0,2.0,88,0.00,,,0.00,meteohub,2013-07-25 04:42:00,
2013-07-24 23:47:00,75.6,71.8,29.94,NE,49,0.0,2.0,88,0.00,,,0.00,meteohub,2013-07-25 04:47:00,
2013-07-24 23:52:00,75.4,71.6,29.94,NE,49,0.0,2.0,88,0.00,,,0.00,meteohub,2013-07-25 04:52:00,
2013-07-24 23:57:00,75.4,71.6,29.94,NE,48,0.0,1.0,88,0.00,,,0.00,meteohub,2013-07-25 04:57:00,